Date String (YYYY-MM-DD hh:mm:ss) UTC,Instrument flags,Ambient pressure (hPa),Sample flow (lpm),Bypass flow (lpm),Sample temperature (°C),Ambient temperature (°C),ASC tube jacket temperature (°C),LED temperature (°C),Box temperature (°C),Sample RH (%),Span deviation,Mass concentration (μg/m³),Mass concentration (μg/m³),Mass concentration (μg/m³)
DateTimeUTC,F1_M11,P_M11,Q1_M11,Q2_M11,T1_M11,T2_M11,T3_M11,T4_M11,T5_M11,U1_M11,ZSPAN_M11,X0_M11,X2_M11,X1_M11
2021-12-09 19:00:00,,0814.9,5.01,0.00,25.8,25.1,00.0,34.7,27.7,13.2,0000.0,0011.40,0003.39,0002.05
2021-12-09 19:01:00,,0814.9,4.99,0.00,25.9,25.1,00.0,34.7,27.7,13.2,0000.0,0011.60,0003.37,0002.04
2021-12-09 19:02:00,,0814.9,5.00,0.00,25.9,25.1,00.0,34.7,27.7,13.2,0000.0,0011.37,0003.32,0002.03
2021-12-09 19:03:00,,0814.9,5.01,0.00,25.9,25.1,00.0,34.7,27.7,13.2,0000.0,0011.58,0003.32,0002.04
2021-12-09 19:04:00,,0814.9,4.99,0.00,25.9,25.1,00.0,34.7,27.7,13.1,0000.0,0012.03,0003.33,0002.06
2021-12-09 19:05:00,,0814.8,5.01,0.00,25.9,25.1,00.0,34.8,27.7,13.1,0000.0,0011.92,0003.33,0002.07
2021-12-09 19:06:00,,0814.8,5.01,0.00,25.9,25.1,00.0,34.8,27.8,13.1,0000.0,0011.46,0003.31,0002.09
2021-12-09 19:07:00,,0814.8,5.00,0.00,25.9,25.2,00.0,34.8,27.8,13.1,0000.0,0012.08,0003.32,0002.08
2021-12-09 19:08:00,,0814.8,4.99,0.00,26.0,25.1,00.0,34.8,27.8,13.1,0000.0,0011.55,0003.34,0002.08
2021-12-09 19:09:00,,0814.8,5.00,0.00,26.0,25.1,00.0,34.8,27.8,13.1,0000.0,0011.47,0003.34,0002.09
2021-12-09 19:10:00,,0814.8,5.00,0.00,26.0,25.2,00.0,34.8,27.8,13.0,0000.0,0010.85,0003.31,0002.07
2021-12-09 19:11:00,,0814.8,5.00,0.00,26.0,25.2,00.0,34.8,27.8,13.0,0000.0,0010.65,0003.35,0002.06
2021-12-09 19:12:00,,0815.2,5.00,0.00,26.0,25.2,00.0,34.9,27.8,13.0,0000.0,0010.42,0003.45,0002.08
2021-12-09 19:13:00,,0814.7,5.01,0.00,26.0,25.2,00.0,34.9,27.8,13.0,0000.0,0010.47,0003.49,0002.11
2021-12-09 19:14:00,,0814.8,5.00,0.00,26.0,25.2,00.0,34.9,27.8,13.0,0000.0,0010.25,0003.48,0002.11
2021-12-09 19:15:00,,0814.8,4.98,0.00,26.0,25.2,00.0,34.9,27.8,13.0,0000.0,0009.48,0003.45,0002.10
2021-12-09 19:16:00,,0815.2,5.02,0.00,26.0,25.2,00.0,34.9,27.8,13.0,0000.0,0009.14,0003.40,0002.07
2021-12-09 19:17:00,,0815.1,5.00,0.00,26.0,25.2,00.0,34.9,27.8,13.0,0000.0,0009.22,0003.38,0002.04
2021-12-09 19:18:00,,0815.2,4.99,0.00,26.0,25.2,00.0,34.9,27.8,13.0,0000.0,0009.52,0003.37,0002.04
2021-12-09 19:19:00,,0815.0,5.01,0.00,26.0,25.2,00.0,34.9,27.8,13.0,0000.0,0010.64,0003.37,0002.04
2021-12-09 19:20:00,,0814.9,4.98,0.00,26.0,25.2,00.0,34.9,27.8,13.0,0000.0,0011.53,0003.38,0002.04
2021-12-09 19:21:00,,0814.7,5.02,0.00,26.0,25.2,00.0,34.9,27.8,13.0,0000.0,0011.69,0003.40,0002.05
2021-12-09 19:22:00,,0814.9,4.99,0.00,26.0,25.2,00.0,34.9,27.9,13.0,0000.0,0011.42,0003.35,0002.03
2021-12-09 19:23:00,,0814.9,5.01,0.00,26.0,25.2,00.0,34.9,27.9,13.0,0000.0,0011.31,0003.29,0002.00
2021-12-09 19:24:00,,0815.0,4.99,0.00,26.0,25.2,00.0,35.0,27.9,13.0,0000.0,0011.26,0003.26,0001.98
2021-12-09 19:25:00,,0814.9,5.00,0.00,26.0,25.2,00.0,35.0,27.9,13.0,0000.0,0011.22,0003.25,0001.96
2021-12-09 19:26:00,,0814.9,5.01,0.00,26.0,25.2,00.0,35.0,27.8,13.0,0000.0,0011.73,0003.28,0001.95
2021-12-09 19:27:00,,0814.9,4.99,0.00,26.0,25.2,00.0,35.0,27.9,13.0,0000.0,0012.11,0003.27,0001.96
2021-12-09 19:28:00,,0814.9,4.99,0.00,26.1,25.2,00.0,35.0,27.9,12.9,0000.0,0011.63,0003.26,0001.98
2021-12-09 19:29:00,,0814.7,5.01,0.00,26.1,25.2,00.0,35.0,27.9,12.9,0000.0,0010.94,0003.23,0001.98
2021-12-09 19:30:00,,0814.6,5.00,0.00,26.1,25.2,00.0,35.0,27.9,12.9,0000.0,0010.17,0003.26,0001.99
2021-12-09 19:31:00,,0814.5,5.00,0.00,26.1,25.2,00.0,35.0,27.9,12.9,0000.0,0009.75,0003.28,0002.00
2021-12-09 19:32:00,,0814.6,5.00,0.00,26.1,25.2,00.0,35.0,27.9,12.9,0000.0,0010.22,0003.30,0002.00
2021-12-09 19:33:00,,0814.5,5.00,0.00,26.1,25.2,00.0,35.0,27.9,12.9,0000.0,0011.03,0003.40,0002.03
2021-12-09 19:34:00,,0814.4,4.99,0.00,26.1,25.2,00.0,35.0,27.9,12.9,0000.0,0011.72,0003.44,0002.04
2021-12-09 19:35:00,,0814.4,4.99,0.00,26.1,25.2,00.0,35.0,27.9,12.9,0000.0,0013.20,0003.49,0002.05
2021-12-09 19:36:00,,0814.4,5.00,0.00,26.1,25.2,00.0,35.0,27.9,12.9,0000.0,0014.61,0003.53,0002.08
2021-12-09 19:37:00,,0814.6,5.00,0.00,26.1,25.3,00.0,35.0,27.9,12.9,0000.0,0014.72,0003.54,0002.10
2021-12-09 19:38:00,,0814.5,5.01,0.00,26.1,25.3,00.0,35.0,27.9,13.0,0000.0,0015.63,0003.57,0002.11
2021-12-09 19:39:00,,0814.4,5.00,0.00,26.1,25.3,00.0,35.0,27.9,13.0,0000.0,0016.06,0003.63,0002.11
2021-12-09 19:40:00,,0814.6,5.00,0.00,26.1,25.3,00.0,35.0,27.9,13.0,0000.0,0017.13,0003.65,0002.11
2021-12-09 19:41:00,,0814.4,5.00,0.00,26.1,25.3,00.0,35.0,27.9,13.0,0000.0,0017.05,0003.67,0002.11
2021-12-09 19:42:00,,0814.4,5.01,0.00,26.1,25.3,00.0,35.0,27.9,13.0,0000.0,0016.51,0003.67,0002.11
2021-12-09 19:43:00,,0814.4,5.00,0.00,26.1,25.3,00.0,35.0,27.9,13.0,0000.0,0015.94,0003.67,0002.10
2021-12-09 19:44:00,,0814.4,5.00,0.00,26.1,25.3,00.0,35.1,27.9,12.9,0000.0,0015.66,0003.66,0002.10
2021-12-09 19:45:00,,0814.4,5.01,0.00,26.1,25.3,00.0,35.1,27.9,12.9,0000.0,0015.28,0003.66,0002.10
2021-12-09 19:46:00,,0814.4,4.99,0.00,26.1,25.3,00.0,35.1,27.9,12.9,0000.0,0014.25,0003.62,0002.10
2021-12-09 19:47:00,,0814.4,5.01,0.00,26.1,25.3,00.0,35.1,28.0,12.9,0000.0,0012.86,0003.60,0002.10
2021-12-09 19:48:00,,0814.5,5.00,0.00,26.1,25.3,00.0,35.1,28.0,12.9,0000.0,0013.68,0003.60,0002.10
2021-12-09 19:49:00,,0814.5,5.01,0.00,26.1,25.3,00.0,35.1,28.0,12.9,0000.0,0013.05,0003.59,0002.11
2021-12-09 19:50:00,,0814.4,5.00,0.00,26.1,25.3,00.0,35.1,28.0,12.9,0000.0,0013.03,0003.59,0002.11
2021-12-09 19:51:00,,0814.4,5.01,0.00,26.2,25.3,00.0,35.1,28.0,12.9,0000.0,0012.53,0003.61,0002.13
2021-12-09 19:52:00,,0814.4,5.00,0.00,26.1,25.3,00.0,35.1,28.0,12.9,0000.0,0014.12,0003.64,0002.14
2021-12-09 19:53:00,,0814.4,4.98,0.00,26.2,25.3,00.0,35.1,27.9,13.0,0000.0,0016.16,0003.65,0002.14
2021-12-09 19:54:00,,0814.3,5.02,0.00,26.2,25.3,00.0,35.1,28.0,13.0,0000.0,0016.37,0003.68,0002.16
2021-12-09 19:55:00,,0814.2,5.00,0.00,26.2,25.3,00.0,35.1,28.0,13.0,0000.0,0016.66,0003.64,0002.19
2021-12-09 19:56:00,,0814.4,5.00,0.00,26.2,25.3,00.0,35.1,28.0,13.0,0000.0,0017.59,0003.63,0002.23
2021-12-09 19:57:00,,0814.5,4.99,0.00,26.2,25.3,00.0,35.1,27.9,13.0,0000.0,0018.09,0003.64,0002.24
2021-12-09 19:58:00,,0814.5,5.01,0.00,26.2,25.3,00.0,35.1,28.0,13.0,0000.0,0019.14,0003.69,0002.25
2021-12-09 19:59:00,,0814.4,4.99,0.00,26.2,25.3,00.0,35.1,28.0,13.0,0000.0,0019.19,0003.73,0002.25
